www.pogodaiklimat.ru

Погода и климат >> Архив погоды >> Россия >> Ивановская область >> Вичуга


ПОГОДА в Вичуге

  • Прогноз погоды в Вичуге
  • Монитор погоды в Вичуге

АРХИВ ПОГОДЫ в Вичуге

Время (UTC), дата Ветер
(напр.,м/с)
 
Видим.   Явления Облачность Т
(С)
Тd
(С)
f
(%)
Тe
(С)
Тes
(С)
Комфортность P
(гПа)
Po
(гПа)
Тmin
(С)
Tmax
(С)
R
(мм)
R24
(мм)
S
(см)
03 13.07 штиль 0 н/о н/о +9.3 +8.5 95 +8 +8 1008.1 991.1 +5.5
06 13.07 С 1 н/о н/о +13.7 +9.7 77 +14 +14 1008.1 991.4 +5.5
09 13.07 СЗ 2 н/о н/о +14.8 +8.7 67 +15 +15 1008.5 991.8
12 13.07 С 2 н/о н/о +15.0 +6.7 58 +15 +15 1008.9 992.2
15 13.07 С 1 н/о н/о +17.2 +7.2 52 +18 +18 1008.9 992.3 +17.2
18 13.07 штиль 0 н/о н/о +12.3 +9.2 81 +12 +12 1010.0 993.1
21 13.07 штиль 0 н/о н/о +8.7 +7.7 93 +8 +8 1010.3 993.2
00 14.07 штиль 0 н/о н/о +6.5 +5.7 95 +5 +5 1010.8 993.6
03 14.07 штиль 0 н/о н/о +9.7 +8.7 93 +9 +9 1011.1 994.0 +6.1
06 14.07 СВ 1 н/о н/о +17.3 +8.4 56 +18 +18 1010.7 994.0 +6.1
09 14.07 СЗ 1 н/о н/о +18.5 +6.8 46 +20 +20 1010.5 994.0
12 14.07 С 1 н/о н/о +19.8 +8.0 46 +22 +22 комфорт 1010.2 993.7
15 14.07 С 1 н/о н/о +20.0 +8.0 46 +22 +22 комфорт 1010.4 994.0 +21.0
18 14.07 СЗ 1 н/о н/о +15.3 +9.4 68 +16 +16 1011.2 994.4
21 14.07 штиль 0 н/о н/о +11.6 +10.0 90 +11 +11 1011.3 994.4
00 15.07 штиль 0 н/о н/о +9.2 +8.2 93 +8 +8 1011.5 994.4
03 15.07 штиль 0 н/о н/о +11.3 +9.7 90 +11 +11 1011.6 994.6 +8.5
06 15.07 С 1 н/о н/о +18.4 +10.2 59 +20 +20 1010.9 994.3 +8.5
09 15.07 З 2 н/о н/о +20.5 +8.5 46 +22 +22 комфорт 1010.2 993.8
12 15.07 С 2 н/о н/о +21.7 +7.2 39 +23 +23 комфорт 1009.9 993.6
15 15.07 СЗ 1 н/о н/о +20.3 +8.2 46 +23 +23 комфорт 1010.2 993.8 +22.6
18 15.07 штиль 0 н/о н/о +16.1 +11.0 72 +16 +16 1010.8 994.1
21 15.07 штиль 0 н/о н/о +11.6 +10.0 90 +11 +11 1011.1 994.2
00 16.07 штиль 0 н/о н/о +9.9 +9.0 94 +9 +9 1011.7 994.7
03 16.07 штиль 0 н/о н/о +11.8 +10.2 90 +11 +11 1012.2 995.3 +9.3
06 16.07 Ю 1 н/о н/о +19.4 +9.5 53 +21 +21 комфорт 1012.1 995.6 +9.3
09 16.07 Ю 1 н/о н/о +22.0 +9.2 44 +23 +23 комфорт 1012.0 995.6
12 16.07 ЮВ 1 н/о н/о +23.8 +9.4 40 +25 +25 комфорт 1011.4 995.2
15 16.07 штиль 0 н/о н/о +22.3 +10.7 48 +24 +24 комфорт 1011.2 994.9 +24.4
18 16.07 штиль 0 н/о н/о +17.9 +12.7 72 +18 +18 1011.9 995.3
21 16.07 штиль 0 н/о н/о +13.6 +11.7 88 +13 +13 1012.0 995.2
00 17.07 штиль 0 н/о н/о +12.9 +11.4 91 +12 +12 1011.8 994.9
03 17.07 штиль 0 н/о н/о +16.5 +12.2 76 +16 +16 1011.4 994.8 +12.2
06 17.07 В 1 н/о н/о +21.0 +14.4 66 +25 +25 комфорт 1010.5 994.1 +12.2
09 17.07 ЮВ 1 н/о н/о +23.8 +12.4 49 +26 +26 жарко 1010.0 993.8
12 17.07 В 2 н/о н/о +22.2 +14.4 61 +25 +25 комфорт 1010.0 993.7
15 17.07 В 2 н/о н/о +17.8 +15.0 84 +18 +18 1009.3 992.8 +24.2 0.5
18 17.07 СВ 1 н/о н/о +16.7 +15.0 90 +18 +18 1008.6 992.1
21 17.07 В 1 н/о н/о +16.9 +14.0 83 +18 +18 1007.2 990.6
00 18.07 В 1 н/о н/о +15.8 +14.7 93 +16 +16 1005.8 989.3
03 18.07 ЮВ 1 н/о н/о +16.2 +15.2 94 +17 +17 1005.8 989.2 +15.7 4
06 18.07 В 2 н/о н/о +17.7 +15.8 89 +18 +18 1005.4 988.9 +15.7
09 18.07 ЮВ 1 н/о н/о +20.0 +16.4 80 +24 +24 комфорт 1005.6 989.3
12 18.07 Ю 1 н/о н/о +21.5 +15.5 69 +25 +25 комфорт 1005.7 989.5
15 18.07 ЮЗ 1 н/о н/о +23.2 +16.0 64 +28 +28 душно 1005.7 989.6 +23.8 1
18 18.07 штиль 0 н/о н/о +18.4 +16.2 87 +19 +19 1006.8 990.3
21 18.07 штиль 0 н/о н/о +14.4 +13.0 91 +14 +14 1007.2 990.6

 

Местоположение метеостанции Вичуга (Ивановская область, Россия): широта 57.22 долгота 41.92 высота над уровнем моря 142 м.

В архиве по умолчанию представлена погода в Вичуге за последнюю неделю. Архивные данные за месяц целиком и за предыдущие месяцы, начиная с января 2011 года, Вы можете получить, выбрав интересующий диапазон дат из раскрывающегося списка и нажав кнопку "Ввод!".


*Определитесь, кто Вы:
робот инопланетянин человек

Внимание! Время в таблицах - всемирное. Для получения местного времени необходимо прибавить поправку, которая равна 3 ч.

Смотрите также архив погоды в соседних городах и на ближайших метеорологических станциях:

Погода в Кинешме (Ивановская область, Россия) (27 км)
Погода в Плесе (Ивановская область, Россия) (36 км)
Погода в Пешном (Атырауская область, Казахстан) (36 км)
Погода в Приволжске (Ивановская область, Россия) (43 км)
Погода в Шуе (Ивановская область, Россия) (52 км)
Погода в Иванове (Ивановская область, Россия) (65 км)
Погода в Юрьевце (Ивановская область, Россия) (73 км)
Погода в Костроме (Костромская область, Россия) (89 км)
Погода в Тейково (Ивановская область, Россия) (93 км)
Погода в Коврове (Владимирская область, Россия) (102 км)

Пояснения к столбцам:

Ветер - указаны скорость ветра в м/с - средняя за 10 мин, порывы в срок и между сроками (в фигурных скобках) и направление, откуда дует ветер: С - северный, СВ - северо-восточный, В - восточный, ЮВ - юго-восточный, Ю - южный, ЮЗ - юго-западный, З - западный, СЗ - северо-западный.
Видимость - горизонтальная дальность видимости в метрах или километрах. При видимости от 1 до 10 км при отсутствии осадков обычно наблюдается дымка, при ухудшении видимости до 1 км и менее - туман. В сухую погоду видимость может ухудшаться дымом, пылью или мглою.
Явления - указаны атмосферные явления, наблюдавшиеся в срок или в последний час перед сроком; фигурными скобками обозначены явления, наблюдавшиеся между сроками (за 1-3 часа до срока); квадратными скобками обозначены град или гололедные отложения с указанием их диаметра в мм.
Облачность - указаны через наклонную черту общая и нижняя облачность в баллах и высота нижней границы облаков в метрах; квадратными скобками обозначены формы облаков: Ci - перистые, Cs - перисто-слоистые, Cc - перисто-кучевые, Ac - высококучевые, As - высокослоистые, Sc - слоисто-кучевые, Ns - слоисто-дождевые, Cu - кучевые, Cb - кучево-дождевые. Подробнее классификацию облаков см. в Атласе облаков (PDF).
T - Температура воздуха - температура, измеренная на высоте 2 м над землей.
Td - Температура точки росы - температура, при понижении до которой содержащийся в воздухе водяной пар достигнет насыщения.
f - Относительная влажность воздуха - влажноcть воздуха, измеренная на высоте 2 м над землей.
Te - Эффективная температура - температура, которую ощущает одетый по сезону человек в тени. Характеристика душности погоды. При расчете учитывается влияние влажности воздуха и скорости ветра на теплоощущения человека.
Tes - Эффективная температура на солнце - температура, которую ощущает человек, с поправкой на солнечный нагрев. Характеристика знойности погоды. Зависит от высоты солнца над горизонтом, облачности и скорости ветра. Ночью, в пасмурную погоду, а также при ветре 12 м/с и более поправка равна нулю.
P - Атмосферное давление - приведенное к уровню моря атмосферное давление.
Po - Атмосферное давление - измеренное на уровне метеостанции атмосферное давление.
Tmin - Минимальная температура - минимум температуры воздуха на высоте 2 м над землей.
Tmax - Максимальная температура - максимум температуры воздуха на высоте 2 м над землей.
R - Количество осадков - Количество выпавших осадков за период времени, мм. При наведении курсора мыши на число - период времени, за который выпало указанное количество осадков.
R24 - Количество осадков - Количество выпавших осадков за 24 часа, мм.
S - Снежный покров - Высота снежного покрова, см. При наведении курсора мыши на число - состояние снежного покрова и степень покрытия местности в баллах.